Погода в Александрополе

Украина / Днепропетровская область     48°00′45″N   34°26′33″E
темп.,
°C
ветер,
м/с
пор.,
м/с
влажн.,
%
обл.,
%
осадки,
мм/ч
давл.,
гПа
погр.,
м
1 августа, вс
вс100:00+25ююз2350100 0.0 101255
03:00+25юз225088 0.0 101222
06:00+24ююз115848 0.0 101211
09:00+28ююв22460 0.0 1012566
12:00+31ююв113432 0.0 10122581
15:00+33вюв122954 0.0 10112821
18:00+31ю453599 0.0 1010605
21:00+27ю33410 0.0 101124
2 августа, пн
пн200:00+26ю344065 0.0 101162
03:00+25зюз34517 0.0 101163
06:00+23з11575 0.0 101111
09:00+29ююз33430 0.0 1012445
12:00+33ююз44330 0.0 10111683
15:00+34ююз55300 0.0 10102018
18:00+33ю46323 0.0 10081041
21:00+25с35555 0.0 1010136
3 августа, вт
вт300:00+22в226834 0.0 101031
03:00+21ююв117116 0.3 101011
06:00+21зюз23823 0.3 101162
09:00+24ссз447243 0.4 1011535
12:00+27с555928 0.1 10121201
15:00+28ссз554625 0.1 10121926
18:00+27сз66400 0.0 10121467
21:00+22сз510550 0.0 1014241
4 августа, ср
ср400:00+20ссз4959100 0.0 1016166
03:00+19с47620 0.0 1017126
06:00+18с34650 0.0 101769
09:00+24св33465 0.0 1018436
12:00+27ссз223282 0.0 10172342
15:00+29ссз23290 0.0 10172683
18:00+29св122816 0.0 10162676
21:00+25ююв124298 0.0 101732
5 августа, чт
чт500:00+21ссв234728 0.0 101828
03:00+21вюв2250100 0.0 101720
06:00+20юв22555 0.0 101719
09:00+26ююв34395 0.0 1018467
12:00+30юв333030 0.0 10172230
15:00+31юв332798 0.0 10152504
18:00+30вюв22285 0.0 10142256
21:00+25в46405 0.0 101479